Regional Weather Roundup
Issued by NWS

Home | Current Version | Previous Version | Text Only | Print | Product List | Glossary On
Versions: 1 2 3 4 5 6 7 8 9 10 11 12 13 14 15 16 17 18 19 20 21 22 23 24 25 26 27 28 29 30 31 32 33 34 35 36 37 38 39 40 41 42 43 44 45 46 47 48 49 50
000
ASUS43 KDTX 060510
RWRMI
MICHIGAN HOURLY REGIONAL WEATHER ROUNDUP
NATIONAL WEATHER SERVICE DETROIT/PONTIAC MI
100 AM EDT WED MAY 06 2015

NOTE: "FAIR" INDICATES FEW OR NO CLOUDS BELOW 12,000 FEET WITH NO
SIGNIFICANT WEATHER AND/OR OBSTRUCTION TO VISIBILITY.

MIZ047>049-052>055-059>063-066>070-074>076-081>083-060600-
SOUTHEAST LOWER MICHIGAN

CITY           SKY/WX    TMP DP  RH WIND       PRES   REMARKS
ADRIAN         CLOUDY    51  51 100 E6        30.27R FOG
ALMA           CLOUDY    48  47  97 CALM      30.28S
ANN ARBOR      HVY RAIN  52  51  97 SE3       30.27R FOG
BAD AXE        MOCLDY    40  37  91 CALM      30.29F
CARO           MOCLDY    44  43  98 CALM      30.28S
DETROIT CITY   LGT RAIN  50  48  93 NE5       30.28S
DETROIT        HVY RAIN  52  48  87 VRB3      30.28R FOG
FLINT          CLOUDY    53  47  79 CALM      30.28S
GROSSE ILE     CLOUDY    52  48  87 N5        30.27R
HILLSDALE      LGT RAIN  51  51 100 E8        30.24F
HOWELL         CLOUDY    52  52  99 E5        30.26F FOG

CITY           SKY/WX    TMP DP  RH WIND       PRES   REMARKS
JACKSON        RAIN      51  50  96 S7        30.27R FOG
LAMBERTVILLE   CLOUDY    52  50  93 CALM      30.26R FOG
LANSING        CLOUDY    52  50  93 E5        30.28R
LAPEER         FOG       45  45 100 CALM      30.28S VSB 1/2
MASON          CLOUDY    51  49  94 CALM      30.26F FOG
MONROE         CLOUDY    52  52 100 E7        30.25S FOG
PONTIAC        CLOUDY    50  45  83 E5        30.27S
PORT HOPE        N/A     39  36  89 CALM      30.28S
PORT HURON     CLOUDY    45  43  93 NE3       30.28F
TRI CITIES     MOCLDY    49  46  90 NE5       30.29S
MIDLAND        FAIR      46  44  93 CALM      30.28S
TROY           LGT RAIN  51  48  90 CALM      30.29R
SAGINAW HB     MOCLDY    48  48 100 CALM      30.28S
$$
MIZ043>046-050>051-056>058-064>065-071>073-077>080-060600-
SOUTHWEST LOWER MICHIGAN

CITY           SKY/WX    TMP DP  RH WIND       PRES   REMARKS
BATTLE CREEK   CLOUDY    51  50  96 E5        30.26S
BENTON HARBOR  MOCLDY    52  51  97 E6        30.22S
BIG RAPIDS     CLOUDY    51  42  72 SE6       30.27R
COLDWATER      CLOUDY    51  50  97 E3        30.25R FOG
FREMONT        FAIR      53  43  68 CALM      30.25S
HOLLAND        CLOUDY    53  50  89 E9        30.24F
GRAND RAPIDS   CLOUDY    53  49  86 E7        30.26S
IONIA          CLOUDY    53  47  80 E8        30.26S
KALAMAZOO      CLOUDY    52  49  89 E5        30.25S FOG
LUDINGTON      CLOUDY    51  44  77 CALM      30.27S
MARSHALL       CLOUDY    50  49  98 CALM      30.25S FOG
MOUNT PLEASANT CLOUDY    51  42  71 CALM      30.27S
MUSKEGON       CLOUDY    55  43  63 E9        30.25S
SOUTH HAVEN    CLOUDY    53  51  94 E7        30.23S FOG
$$
MIZ016>042-060600-
NORTHERN LOWER MICHIGAN

CITY           SKY/WX    TMP DP  RH WIND       PRES   REMARKS
ALPENA         MOCLDY    38  35  89 CALM      30.31S
BEAVER ISLAND  CLEAR     43  34  71 E5        30.28S
BELLAIRE       PTCLDY    44  37  76 CALM      30.28R
CADILLAC       CLOUDY    45  30  56 CALM      30.27R
CHARLEVOIX     PTCLDY    45  35  66 SE5       30.30S
FRANKFORT      CLOUDY    50  33  51 CALM      30.26S
GAYLORD        PTCLDY    49  35  58 NE3       30.28F
GRAYLING       PTCLDY    38  32  79 CALM      30.29F
HARBOR SPRINGS PTCLDY    49  34  56 CALM      30.29R
HOUGHTON LAKE  MOCLDY    43  38  82 CALM      30.28F
MANISTEE       CLOUDY    45  37  76 CALM      30.27S
OSCODA         MOCLDY    33  31  92 CALM      30.30S
PELLSTON       CLEAR     39  29  67 CALM      30.29S
ROGERS CITY    PTCLDY    39  37  91 CALM      30.31S
TRAVERSE CITY  MOCLDY    41  35  79 E3        30.26S
$$
MIZ007>008-015-060600-
EASTERN UPPER MICHIGAN

CITY           SKY/WX    TMP DP  RH WIND       PRES   REMARKS
KINROSS        CLEAR     46  30  53 CALM      30.30S
MACKINAC ISLAN CLEAR     45  38  77 E7        30.29S
NEWBERRY       CLEAR     47  30  52 SW7       30.28F
S. S. MARIE    CLEAR     45  31  58 CALM      30.29S
MUNISING         N/A     43  33  68 S5        30.27S
$$
MIZ004>006-011>014-085-060600-
CENTRAL UPPER MICHIGAN

CITY           SKY/WX    TMP DP  RH WIND       PRES   REMARKS
MANISTIQUE     CLEAR     42  30  63 CALM      30.27F
ESCANABA       CLEAR     37  34  87 CALM      30.25F
MENOMINEE      MOCLDY    48  34  57 CALM      30.25F
SAWYER-GWINN   CLEAR     44  29  55 CALM      30.27R
$$
MIZ001>003-009>011-084-060600-
WESTERN UPPER MICHIGAN

CITY           SKY/WX    TMP DP  RH WIND       PRES   REMARKS
IRON MOUNTAIN  CLEAR     41  30  65 CALM      30.25S
HOUGHTON       PTCLDY    45  28  51 E6        30.22F
COPPER HARBOR    N/A     51  28  41 SW13G24   30.21F
IRONWOOD       CLEAR     57  27  30 S8        30.18S
$$

ABBREVIATIONS USED IN REMARKS
   TC - TEMPERATURE IN CELSIUS
  WCI - WIND CHILL INDEX
   HX - HEAT INDEX
  VSB - VISIBILITY



USA.gov is the U.S. government's official web portal to all federal, state and local government web resources and services.